Princeton, MN

4:39 AM CST on November 17, 2019 (GMT -0600)
Princeton Municipal

Weather History for KPNM - August, 2019

Change the Weather History Date:

Saturday, August 10, 2019

  Actual Average Record
Temperature  
Mean Temperature 66 °F -  
Max Temperature 71 °F 76 °F 96 °F (2007)
Min Temperature 62 °F 54 °F 44 °F (2001)
Cooling Degree Days 2    
Growing Degree Days 16 (Base 50)    
Moisture  
Dew Point 62 °F    
Average Humidity 84    
Maximum Humidity 100    
Minimum Humidity 69    
Precipitation  
Precipitation 0.00 in - - ()
Sea Level Pressure  
Sea Level Pressure 29.98 in    
Wind  
Wind Speed 1 mph (East)    
Max Wind Speed 9 mph    
Max Gust Speed -    
Visibility 9 miles    
Events Rain    
Averages and records for this station are not official NWS values.
T = Trace of Precipitation, MM = Missing Value Source: NWS Daily Summary

Daily Weather History Graph

Daily Weather History Graph

Search for Another Location

Airport or City:

Astronomy

Aug. 10, 2019 Rise Set
Actual Time 6:08 AM CDT 8:30 PM CDT
Civil Twilight 5:35 AM CDT 9:03 PM CDT
Nautical Twilight 4:54 AM CDT 9:43 PM CDT
Astronomical Twilight 4:07 AM CDT 10:30 PM CDT
Moon 5:19 PM CDT (8/10) 1:41 AM CDT (8/10)
Length of Visible Light 15h 27m
Length of Day
14h 21m
Waxing Gibbous, 79% of the Moon is Illuminated
Aug 10
Waxing Gibbous
Aug 15
Full
Aug 23
Last Quarter
Aug 30
New
Sep 5
First Quarter

Hourly Weather History & Observations

Time (CDT) Temp. Dew Point Humidity Pressure Visibility Wind Dir Wind Speed Gust Speed Precip Events Conditions
12:15 AM 66.2 °F 60.8 °F 83% 29.98 in 10.0 mi Calm Calm - N/A   Overcast
12:16 AM 66.2 °F 60.8 °F 83% 29.98 in 10.0 mi Calm Calm - N/A   Overcast
12:35 AM 66.2 °F 60.8 °F 83% 29.98 in 10.0 mi Calm Calm - N/A   Mostly Cloudy
12:40 AM 64.4 °F 60.8 °F 88% 29.98 in 10.0 mi Calm Calm - N/A   Scattered Clouds
12:58 AM 66.2 °F 60.8 °F 83% 29.98 in 10.0 mi Calm Calm - N/A   Scattered Clouds
1:16 AM 64.4 °F 60.8 °F 88% 29.98 in 10.0 mi Calm Calm - N/A   Scattered Clouds
1:35 AM 64.4 °F 60.8 °F 88% 29.98 in 10.0 mi Calm Calm - N/A   Overcast
1:36 AM 64.4 °F 60.8 °F 88% 29.98 in 10.0 mi Calm Calm - N/A   Overcast
1:55 AM 64.4 °F 60.8 °F 88% 29.99 in 10.0 mi Calm Calm - N/A   Overcast
2:19 AM 64.4 °F 60.8 °F 88% 29.98 in 10.0 mi Calm Calm - N/A   Overcast
2:36 AM 64.4 °F 60.8 °F 88% 29.99 in 10.0 mi Calm Calm - N/A   Overcast
2:55 AM 64.4 °F 60.8 °F 88% 29.98 in 10.0 mi Calm Calm - N/A   Overcast
2:56 AM 64.4 °F 60.8 °F 88% 29.98 in 10.0 mi Calm Calm - N/A   Overcast
3:15 AM 64.4 °F 60.8 °F 88% 29.98 in 10.0 mi Calm Calm - N/A   Mostly Cloudy
3:35 AM 64.4 °F 60.8 °F 88% 29.98 in 10.0 mi Calm Calm - N/A   Scattered Clouds
3:58 AM 64.4 °F 60.8 °F 88% 29.98 in 10.0 mi Calm Calm - N/A   Mostly Cloudy
4:16 AM 62.6 °F 60.8 °F 94% 29.98 in 10.0 mi Calm Calm - N/A   Mostly Cloudy
4:35 AM 62.6 °F 60.8 °F 94% 29.98 in 10.0 mi Calm Calm - N/A   Overcast
4:36 AM 62.6 °F 60.8 °F 94% 29.98 in 10.0 mi Calm Calm - N/A   Overcast
4:55 AM 62.6 °F 60.8 °F 94% 29.97 in 10.0 mi Calm Calm - N/A   Overcast
5:19 AM 64.4 °F 60.8 °F 88% 29.97 in 10.0 mi Calm Calm - N/A   Overcast
5:37 AM 64.4 °F 60.8 °F 88% 29.98 in 10.0 mi Calm Calm - N/A   Overcast
5:56 AM 64.4 °F 60.8 °F 88% 29.98 in 10.0 mi Calm Calm - N/A   Overcast
6:15 AM 64.4 °F 60.8 °F 88% 29.99 in 10.0 mi Calm Calm - N/A   Scattered Clouds
6:16 AM 64.4 °F 60.8 °F 88% 29.99 in 10.0 mi Calm Calm - N/A   Scattered Clouds
6:35 AM 64.4 °F 60.8 °F 88% 29.99 in 10.0 mi Calm Calm - N/A   Clear
6:40 AM 64.4 °F 60.8 °F 88% 29.99 in 10.0 mi Calm Calm - N/A   Clear
6:58 AM 66.2 °F 60.8 °F 83% 29.99 in 10.0 mi Calm Calm - N/A   Clear
7:16 AM 66.2 °F 60.8 °F 83% 29.99 in 10.0 mi Calm Calm - N/A   Scattered Clouds
7:35 AM 66.2 °F 60.8 °F 83% 29.99 in 10.0 mi Calm Calm - N/A   Scattered Clouds
7:36 AM 66.2 °F 60.8 °F 83% 29.99 in 10.0 mi Calm Calm - N/A   Scattered Clouds
7:55 AM 66.2 °F 60.8 °F 83% 29.99 in 10.0 mi Calm Calm - N/A   Mostly Cloudy
8:19 AM 68.0 °F 60.8 °F 78% 29.99 in 10.0 mi Calm Calm - N/A   Scattered Clouds
8:37 AM 68.0 °F 60.8 °F 78% 30.00 in 10.0 mi Calm Calm - N/A   Mostly Cloudy
8:55 AM 68.0 °F 60.8 °F 78% 30.00 in 10.0 mi SSE 4.6 mph - N/A   Mostly Cloudy
8:56 AM 68.0 °F 60.8 °F 78% 30.00 in 10.0 mi SSE 4.6 mph - N/A   Mostly Cloudy
9:15 AM 68.0 °F 60.8 °F 78% 30.01 in 10.0 mi Calm Calm - N/A   Scattered Clouds
9:16 AM 68.0 °F 60.8 °F 78% 30.01 in 10.0 mi Calm Calm - N/A   Scattered Clouds
9:35 AM 68.0 °F 60.8 °F 78% 30.01 in 10.0 mi Calm Calm - N/A   Scattered Clouds
9:40 AM 68.0 °F 60.8 °F 78% 30.01 in 10.0 mi Calm Calm - N/A   Scattered Clouds
9:57 AM 68.0 °F 60.8 °F 78% 30.01 in 10.0 mi South 3.5 mph - N/A   Mostly Cloudy
10:16 AM 66.2 °F 60.8 °F 83% 30.01 in 10.0 mi South 3.5 mph - N/A   Mostly Cloudy
10:35 AM 66.2 °F 60.8 °F 83% 30.01 in 10.0 mi Calm Calm - N/A   Mostly Cloudy
10:36 AM 66.2 °F 60.8 °F 83% 30.01 in 10.0 mi Calm Calm - N/A   Mostly Cloudy
10:55 AM 66.2 °F 60.8 °F 83% 30.01 in 10.0 mi Calm Calm - N/A   Scattered Clouds
10:56 AM 66.2 °F 60.8 °F 83% 30.01 in 10.0 mi Calm Calm - N/A   Scattered Clouds
11:18 AM 66.2 °F 60.8 °F 83% 30.00 in 7.0 mi ESE 5.8 mph - N/A Rain Rain
11:37 AM 64.4 °F 60.8 °F 88% 30.00 in 10.0 mi Calm Calm - N/A Rain Rain
11:55 AM 66.2 °F 62.6 °F 88% 29.99 in 10.0 mi NE 3.5 mph - N/A Rain Light Rain
12:15 PM 68.0 °F 62.6 °F 83% 29.99 in 10.0 mi ESE 4.6 mph - N/A Rain Light Rain
12:16 PM 68.0 °F 62.6 °F 83% 29.99 in 10.0 mi ESE 4.6 mph - N/A Rain Light Rain
12:35 PM 69.8 °F 62.6 °F 78% 29.99 in 10.0 mi Calm Calm - N/A Rain Light Rain
12:40 PM 69.8 °F 62.6 °F 78% 29.99 in 10.0 mi Calm Calm - N/A   Light Drizzle
12:57 PM 69.8 °F 62.6 °F 78% 29.99 in 10.0 mi Calm Calm - N/A   Scattered Clouds
1:16 PM 71.6 °F 60.8 °F 69% 29.98 in 10.0 mi SSE 4.6 mph - N/A   Scattered Clouds
1:35 PM 71.6 °F 60.8 °F 69% 29.99 in 10.0 mi Calm Calm - N/A   Mostly Cloudy
1:36 PM 71.6 °F 60.8 °F 69% 29.98 in 10.0 mi SSE 4.6 mph - N/A   Mostly Cloudy
1:55 PM 71.6 °F 60.8 °F 69% 29.98 in 10.0 mi ESE 4.6 mph - N/A   Mostly Cloudy
1:56 PM 71.6 °F 60.8 °F 69% 29.98 in 10.0 mi East 3.5 mph - N/A   Mostly Cloudy
2:19 PM 71.6 °F 60.8 °F 69% 29.99 in 10.0 mi Calm Calm - N/A   Mostly Cloudy
2:37 PM 71.6 °F 60.8 °F 69% 29.98 in 10.0 mi East 4.6 mph - N/A   Mostly Cloudy
2:55 PM 69.8 °F 60.8 °F 73% 29.98 in 10.0 mi ENE 4.6 mph - N/A Rain Light Rain
3:15 PM 69.8 °F 60.8 °F 73% 29.98 in 10.0 mi NE 3.5 mph - N/A   Clear
3:16 PM 69.8 °F 60.8 °F 73% 29.98 in 10.0 mi NE 3.5 mph - N/A   Scattered Clouds
3:35 PM 69.8 °F 62.6 °F 78% 29.97 in 10.0 mi NE 3.5 mph - N/A Rain Light Rain
3:40 PM 69.8 °F 62.6 °F 78% 29.97 in 10.0 mi NNE 4.6 mph - N/A   Light Drizzle
3:58 PM 69.8 °F 62.6 °F 78% 29.97 in 10.0 mi NE 4.6 mph - N/A   Scattered Clouds
4:16 PM 68.0 °F 62.6 °F 83% 29.96 in 7.0 mi NNE 4.6 mph - N/A Rain Rain
4:35 PM 69.8 °F 64.4 °F 83% 29.96 in 10.0 mi ENE 4.6 mph - N/A   Scattered Clouds
4:56 PM 69.8 °F 62.6 °F 78% 29.96 in 10.0 mi ENE 3.5 mph - N/A   Mostly Cloudy
5:19 PM 71.6 °F 64.4 °F 78% 29.95 in 10.0 mi ENE 3.5 mph - N/A   Overcast
5:37 PM 71.6 °F 62.6 °F 73% 29.95 in 10.0 mi ENE 4.6 mph - N/A Rain Light Rain
5:55 PM 69.8 °F 64.4 °F 83% 29.95 in 10.0 mi ENE 4.6 mph - N/A Rain Light Rain
6:15 PM 69.8 °F 62.6 °F 78% 29.95 in 10.0 mi ESE 6.9 mph - N/A Rain Light Rain
6:16 PM 69.8 °F 62.6 °F 78% 29.95 in 10.0 mi ESE 5.8 mph - N/A   Light Drizzle
6:35 PM 69.8 °F 62.6 °F 78% 29.95 in 10.0 mi ESE 9.2 mph - N/A   Mostly Cloudy
6:58 PM 69.8 °F 62.6 °F 78% 29.95 in 10.0 mi ESE 8.1 mph - N/A   Overcast
7:16 PM 69.8 °F 62.6 °F 78% 29.95 in 10.0 mi ESE 5.8 mph - N/A   Overcast
7:35 PM 68.0 °F 62.6 °F 83% 29.95 in 10.0 mi East 4.6 mph - N/A   Overcast
7:36 PM 68.0 °F 62.6 °F 83% 29.95 in 10.0 mi East 4.6 mph - N/A   Overcast
7:55 PM 68.0 °F 62.6 °F 83% 29.94 in 10.0 mi ESE 4.6 mph - N/A   Overcast
7:56 PM 68.0 °F 62.6 °F 83% 29.94 in 10.0 mi ESE 4.6 mph - N/A   Overcast
8:19 PM 68.0 °F 62.6 °F 83% 29.94 in 10.0 mi ESE 6.9 mph - N/A   Overcast
8:37 PM 68.0 °F 62.6 °F 83% 29.92 in 10.0 mi ESE 8.1 mph - N/A   Overcast
8:55 PM 66.2 °F 62.6 °F 88% 29.94 in 10.0 mi ESE 6.9 mph - N/A   Overcast
8:56 PM 66.2 °F 62.6 °F 88% 29.94 in 10.0 mi ESE 5.8 mph - N/A   Overcast
9:15 PM 66.2 °F 62.6 °F 88% 29.95 in 10.0 mi ESE 6.9 mph - N/A   Overcast
9:35 PM 66.2 °F 62.6 °F 88% 29.96 in 10.0 mi ESE 3.5 mph - N/A   Overcast
9:39 PM 66.2 °F 62.6 °F 88% 29.96 in 7.0 mi East 4.6 mph - N/A   Overcast
9:58 PM 66.2 °F 62.6 °F 88% 29.96 in 3.0 mi East 3.5 mph - N/A   Drizzle
10:16 PM 64.4 °F 64.4 °F 100% 29.96 in 3.0 mi Calm Calm - N/A   Drizzle
10:35 PM 64.4 °F 64.4 °F 100% 29.96 in 2.5 mi East 3.5 mph - N/A   Drizzle
10:36 PM 64.4 °F 64.4 °F 100% 29.96 in 2.5 mi ENE 3.5 mph - N/A   Heavy Drizzle
10:55 PM 64.4 °F 64.4 °F 100% 29.96 in 4.0 mi East 3.5 mph - N/A   Light Drizzle
11:19 PM 64.4 °F 64.4 °F 100% 29.97 in 7.0 mi Calm Calm - N/A   Overcast
11:37 PM 64.4 °F 64.4 °F 100% 29.97 in 10.0 mi Calm Calm - N/A   Overcast
11:55 PM 64.4 °F 64.4 °F 100% 29.97 in 5.0 mi Calm Calm - N/A   Overcast
11:56 PM 64.4 °F 64.4 °F 100% 29.97 in 5.0 mi Calm Calm - N/A   Overcast